Knoxville Regional Airport (TYS)

 

Airport Diagram
Current Weather/Forecast (VFR Conditions)
METAR KTYS 020953Z 00000KT 10SM CLR 03/02 A3009 RMK AO2 SLP191 T00330017
TAF KTYS 020529Z 0206/0306 02003KT P6SM FEW050 FM021600 01006KT P6SM SCT250 FM030100 03003KT P6SM SCT250

All Charts
General
Chart Name Download
AIRPORT DIAGRAM
TAKEOFF MINIMUMS
ALTERNATE MINIMUMS
RADAR MINIMUMS
HOT SPOT

Departures
Chart Name Download
KNOXVILLE SIX

Approaches
Chart Name Download
HI-ILS OR LOC RWY 05L
HI-ILS OR LOC RWY 23L
HI-ILS OR LOC RWY 23R
ILS OR LOC RWY 05L
ILS OR LOC RWY 23L
ILS OR LOC RWY 23R
ILS RWY 23R (SA CAT I)
ILS RWY 23R (CAT II)
RNAV (GPS) RWY 05L
RNAV (GPS) RWY 05R
RNAV (GPS) RWY 23L
RNAV (GPS) RWY 23R
HI-VOR/DME OR TACAN RWY 05L
HI-VOR/DME OR TACAN RWY 23R
VOR RWY 23L
VOR RWY 23R


Inbound Traffic (Arrivals)

No inbound traffic.


Outbound Traffic (Departures)

No outbound traffic.